Temperature
16 16 17 17 17 18 19 22 23 23 24 24 24 24 23 22 21 19 17 17 17 17 17 17 17 17 17 16 16 16 16 16 15 15 15 16 15 15 15 15 15 15 15 15 15 15 15 15 15
16 16 16 17 17 18 20 22 23 23 23 23 23 23 23 20 19 18 17 16 16 17 17 17 17 16 16 16 16 16 16 15 15 15 15 15 15 15 15 15 15 15 15 15 15 15 15 15 14
15 15 16 18 18 19 21 22 22 22 22 22 22 22 21 19 18 17 16 16 16 16 16 17 17 16 16 16 16 16 16 15 15 15 15 15 15 15 15 15 15 15 15 15 15 15 15 14 14
14 15 17 17 18 20 21 22 22 21 22 21 21 20 19 18 17 17 16 16 16 16 16 16 16 16 16 16 16 15 15 15 15 15 15 15 15 15 15 15 14 15 15 15 15 15 14 14 14
14 16 16 17 18 20 21 22 22 21 21 21 21 19 17 17 17 16 16 16 16 16 16 16 16 16 16 15 15 15 15 15 15 15 15 15 14 14 14 14 14 14 14 14 14 14 14 14 14
14 16 16 17 18 20 21 21 21 21 21 21 20 19 16 16 16 16 16 16 15 15 15 16 16 16 16 15 15 15 15 15 15 15 15 15 14 14 14 14 14 14 14 14 14 14 14 14 14
14 15 16 17 18 19 20 21 20 20 20 20 19 18 16 15 15 15 15 15 15 15 15 15 15 15 15 15 15 14 14 14 14 14 14 14 14 14 14 14 14 14 14 14 14 14 14 14 14
13 15 16 16 17 18 19 19 19 19 19 19 19 18 15 15 15 14 14 14 14 14 15 15 15 15 14 14 14 14 14 14 14 14 14 14 14 14 14 14 14 14 14 14 14 14 14 14 13
13 13 14 16 17 17 18 18 18 17 17 17 17 17 16 15 14 14 14 14 14 14 14 14 14 14 14 14 14 14 14 14 14 13 14 14 14 14 14 13 13 13 13 13 13 13 13 13 13
13 12 14 16 17 16 17 17 17 16 16 16 16 15 15 14 14 14 13 13 13 13 14 14 14 14 14 14 14 13 13 13 13 13 13 13 13 13 13 13 13 13 13 13 13 13 13 13 13
13 12 14 15 15 15 15 15 16 15 15 16 15 14 14 14 13 13 13 13 13 13 13 13 13 13 13 13 13 13 13 13 13 13 13 13 13 13 13 13 13 13 13 13 13 13 12 12 12
12 13 14 14 14 14 14 14 14 15 15 15 15 14 14 13 13 13 13 13 13 13 13 13 13 13 13 13 13 13 13 13 12 12 12 12 12 12 12 12 12 12 12 12 12 12 12 12 12
11 12 12 13 12 13 13 13 13 14 14 14 14 14 13 13 12 12 12 12 12 12 12 13 13 13 13 12 12 12 12 13 12 12 12 12 12 12 12 12 12 12 12 12 12 12 12 12 12
11 11 12 12 12 12 12 13 13 13 13 13 13 13 13 12 12 12 12 12 12 12 12 12 13 13 13 12 12 12 12 12 12 12 12 12 12 12 12 12 12 12 12 12 12 12 11 11 11
10 10 11 12 12 12 12 12 12 13 13 13 13 12 12 12 12 12 12 12 12 12 12 12 12 12 12 12 12 12 12 12 12 12 12 12 12 12 12 11 11 12 12 12 11 11 11 11 11
10 9 10 12 12 12 11 10 13 13 13 12 12 12 12 12 12 12 12 11 11 12 12 12 12 12 12 12 12 12 12 12 11 12 11 11 12 11 11 11 11 11 11 11 11 11 11 11 11
9 9 10 11 12 12 11 10 12 13 13 12 12 12 12 12 12 12 11 11 11 11 11 11 11 11 11 11 11 11 11 11 11 11 11 11 11 11 11 11 11 11 11 11 11 11 11 11 11
8 9 10 10 12 12 10 11 12 12 12 12 12 12 11 11 11 11 11 11 11 11 11 11 11 11 11 11 11 11 11 11 11 11 11 11 11 11 11 11 11 11 11 11 10 10 10 10 10
9 9 9 10 11 11 10 11 11 12 12 11 11 11 11 11 11 11 11 10 10 10 10 10 10 10 10 10 10 10 11 11 11 11 11 11 11 11 11 11 11 11 10 10 10 10 10 10 10
8 8 8 10 11 11 10 10 11 12 11 11 11 11 11 11 11 11 10 10 10 10 10 10 10 10 10 10 10 10 10 10 10 10 10 10 11 11 11 11 10 10 10 10 10 10 10 9 9
8 8 8 8 9 10 9 9 10 11 12 11 11 11 11 11 11 10 10 10 9 9 9 9 9 9 10 10 10 10 10 10 10 10 10 10 10 10 10 10 10 10 10 10 10 10 9 9 9
7 9 9 8 7 7 8 7 10 11 11 11 11 11 11 11 10 10 10 10 9 9 9 9 9 9 9 10 9 9 9 9 9 9 9 9 10 10 10 10 10 10 10 9 9 9 9 9 9
7 8 8 8 7 7 8 7 8 10 10 10 10 10 10 10 10 10 10 9 9 9 8 8 8 8 9 9 9 9 9 9 9 9 9 9 9 9 9 9 9 9 9 9 9 9 9 9 9
8 7 7 7 6 6 7 7 8 9 10 10 10 10 9 9 9 9 9 9 9 9 8 8 8 8 8 9 9 9 9 9 9 9 9 9 9 9 9 9 9 9 9 9 9 8 8 8 8
7 6 6 6 6 6 8 8 8 9 10 9 9 9 9 9 9 9 9 9 9 8 8 8 8 8 8 8 8 8 8 8 8 8 8 8 8 8 8 8 8 8 8 8 8 8 8 8 8
6 6 6 6 6 7 8 7 9 9 9 9 9 9 9 8 8 8 8 8 8 8 8 8 8 8 8 8 8 8 8 8 8 8 8 8 8 8 8 8 8 8 8 8 8 8 7 7 7
6 6 6 6 6 6 7 9 9 9 8 8 8 8 8 8 8 8 8 8 8 8 7 7 7 7 8 8 7 7 7 7 7 7 7 8 8 8 7 7 7 7 7 7 7 7 7 7 7
6 6 5 5 6 6 8 8 8 7 7 8 7 7 7 7 7 7 7 7 7 7 7 7 7 7 7 7 7 7 7 7 7 7 7 7 7 7 7 7 7 7 7 7 7 7 6 6 6
5 5 5 5 6 6 7 7 8 7 7 7 6 7 7 7 7 7 7 7 7 7 7 6 6 6 7 7 6 6 6 6 7 7 7 7 7 7 7 7 7 6 6 6 6 6 6 6 6
5 5 5 4 5 5 6 6 8 7 7 7 7 6 6 6 6 6 6 6 6 6 6 6 6 6 6 6 6 6 6 6 6 6 6 6 6 6 6 6 6 6 6 6 6 5 5 5 5
Wind_Speed
16 14 7 3 4 5 9 7 6 3 2 2 4 3 3 3 3 6 4 6 9 10 13 14 13 12 12 12 12 11 11 11 11 11 11 11 11 12 11 11 12 12 12 12 12 12 12 12 11
13 9 4 4 5 8 8 9 8 3 1 3 3 2 2 4 6 7 5 6 8 9 13 13 13 13 12 12 12 12 11 11 11 11 11 10 10 11 11 11 11 11 11 11 11 11 11 10 10
10 7 4 4 6 10 7 4 2 3 4 2 1 1 2 3 5 4 5 6 7 9 11 13 14 13 12 12 12 12 11 11 11 11 10 10 10 10 10 10 10 11 11 10 10 10 10 10 9
4 3 4 7 13 11 8 3 1 3 3 2 2 3 3 3 3 5 6 6 7 8 10 12 14 13 12 12 12 11 11 11 11 11 10 10 9 9 9 10 10 10 10 10 9 9 9 9 8
3 4 6 9 14 11 8 4 1 2 4 4 3 3 3 4 7 7 5 4 5 7 10 12 14 13 13 12 12 12 11 11 11 10 10 9 9 9 9 10 9 9 9 9 9 9 9 9 8
3 4 7 11 13 11 9 5 4 4 3 4 3 3 2 3 6 4 4 4 4 7 9 11 12 13 13 13 12 11 11 11 11 10 10 9 9 9 9 9 9 8 8 8 8 8 8 7 7
3 4 9 11 10 9 7 3 4 4 3 3 1 2 3 3 4 3 3 3 4 6 8 9 10 11 13 13 12 12 11 11 11 10 10 9 9 9 9 9 8 8 8 8 7 7 6 6 5
3 4 8 10 11 9 4 2 2 3 2 1 1 2 3 3 4 3 3 3 4 4 6 7 9 9 10 12 13 12 11 11 11 10 10 9 9 8 8 8 8 7 8 7 6 6 5 5 4
3 4 8 9 8 6 2 2 2 4 1 2 1 2 3 5 3 3 3 2 2 3 3 5 7 7 8 10 12 12 12 11 11 10 10 9 8 8 7 8 7 7 7 7 6 5 4 3 2
4 6 10 6 6 5 4 4 2 2 4 4 2 3 6 5 3 4 4 4 3 3 3 3 5 6 7 8 10 10 10 10 10 9 9 8 7 7 7 8 7 7 7 6 5 4 4 3 2
4 7 7 7 7 6 6 5 4 6 8 7 5 5 5 5 5 5 5 5 5 4 3 3 3 5 5 5 7 7 8 8 8 9 9 7 7 7 7 7 6 6 6 5 5 4 3 2 2
5 8 8 8 7 6 7 6 6 9 7 4 4 5 5 6 7 6 6 5 5 5 4 3 3 4 5 5 5 6 6 6 6 7 8 7 5 4 5 5 5 5 5 4 4 2 2 2 2
9 8 8 8 7 7 9 10 8 10 7 4 4 5 7 7 7 6 6 5 4 5 4 4 4 4 5 5 4 4 5 6 6 7 7 7 5 4 4 4 4 4 4 4 3 2 3 2 2
5 7 10 10 9 8 10 11 9 9 6 5 6 7 8 9 8 7 6 6 6 5 5 4 5 4 5 4 4 4 5 6 7 7 7 7 6 5 4 3 3 3 4 4 3 3 2 2 2
6 8 11 9 8 6 7 11 12 10 7 8 8 8 8 8 8 8 7 6 6 6 5 4 4 4 5 5 4 4 4 6 6 6 8 7 6 6 4 3 2 3 3 3 3 2 3 2 2
5 7 7 7 7 5 5 11 8 6 7 9 8 8 8 8 8 7 6 6 5 5 5 4 3 3 4 5 4 3 4 5 5 6 7 8 7 6 5 3 2 3 3 3 3 2 1 1 1
5 6 8 7 7 5 7 9 7 5 7 9 8 8 8 8 8 7 7 6 5 5 6 5 4 4 3 4 4 3 3 4 5 6 6 7 7 6 5 3 3 4 3 2 2 2 2 1 1
5 6 7 8 5 7 9 11 8 7 8 9 9 9 9 9 9 7 7 6 5 5 5 5 5 4 4 4 3 3 3 3 4 5 6 7 7 7 5 4 3 3 2 2 2 2 2 2 1
8 9 11 10 6 7 11 13 10 9 8 9 9 9 10 10 8 6 6 6 5 5 6 6 6 5 4 4 4 4 4 4 4 4 6 7 7 7 6 4 3 3 2 3 3 3 3 1 1
11 12 12 10 6 7 10 14 12 10 10 9 10 10 10 8 7 7 6 6 6 6 6 6 6 6 4 5 5 4 3 3 3 4 5 6 7 7 6 5 4 3 2 3 3 3 2 1 1
12 11 10 9 9 8 8 11 11 9 9 9 9 9 9 9 9 8 7 7 7 6 7 6 6 6 5 5 4 3 3 3 2 3 3 4 6 7 6 6 4 3 3 3 3 4 3 3 2
10 9 9 9 7 6 5 7 8 7 8 8 7 6 7 6 7 7 8 7 7 6 6 6 6 6 6 6 6 6 5 4 4 4 4 4 5 5 6 6 5 4 2 3 3 3 2 3 3
6 6 8 8 7 7 6 6 7 6 8 7 5 4 4 5 5 6 7 7 6 6 6 6 6 6 6 6 7 7 5 3 3 4 5 4 3 4 5 5 5 4 3 3 3 2 2 2 3
5 4 5 5 4 7 8 7 6 4 5 3 2 2 4 4 4 4 5 5 5 5 6 6 6 7 7 6 6 6 6 5 5 4 4 4 3 3 4 4 4 4 3 3 3 3 3 2 2
4 2 1 2 4 6 4 5 5 4 2 1 2 2 3 3 4 4 4 4 5 6 6 6 7 7 7 7 6 6 7 7 6 6 5 4 4 3 4 3 4 4 4 3 4 3 3 3 4
4 3 3 3 3 3 3 6 4 2 2 2 1 0 1 3 3 3 4 4 4 5 5 6 6 6 6 6 5 5 6 5 5 5 5 5 4 3 4 3 3 4 5 4 4 3 3 3 3
2 4 3 3 4 4 5 4 2 2 3 3 3 3 2 1 1 2 2 3 4 3 3 4 5 4 5 5 5 4 5 5 5 5 4 3 3 4 4 4 3 4 4 4 4 3 3 3 3
3 2 2 2 2 4 5 5 3 2 2 3 2 2 2 2 1 1 2 2 2 2 3 2 3 4 4 4 4 3 4 5 5 5 5 4 4 4 5 4 4 3 3 4 3 3 3 3 3
2 3 3 3 3 3 4 3 2 1 1 1 2 2 2 2 1 2 1 2 2 2 2 2 3 3 4 4 4 3 4 4 5 4 5 5 4 5 5 5 4 3 3 3 3 3 4 3 3
3 3 3 3 4 3 3 5 1 3 3 3 3 4 3 2 2 2 2 2 2 2 1 1 2 3 3 4 4 4 4 4 4 4 4 4 4 4 5 5 5 4 3 3 4 4 4 4 3
Wind_Direction
308 292 274 252 236 231 238 239 246 235 248 6 24 14 18 21 30 106 130 100 107 124 134 141 138 135 132 127 123 118 116 114 112 108 106 103 105 105 106 106 106 104 100 96 92 91 91 87 87
302 297 273 237 233 232 233 226 237 220 128 59 46 17 31 62 69 102 106 96 110 123 133 143 141 137 134 130 127 123 120 117 114 111 108 107 104 107 106 105 107 105 101 99 96 94 95 93 91
286 276 253 232 230 233 237 219 210 155 108 102 114 27 22 74 78 94 97 106 109 115 128 141 142 140 137 134 131 127 123 120 117 115 112 111 107 105 108 106 106 106 103 100 98 98 98 95 94
286 244 239 242 239 238 252 251 138 139 130 132 135 106 72 50 67 85 94 109 114 117 119 138 145 144 140 138 134 130 127 124 121 118 115 113 112 106 108 106 103 105 105 101 98 99 98 98 97
252 241 229 235 244 245 256 272 212 198 181 176 191 139 96 64 79 92 95 106 114 118 120 136 148 147 144 142 138 134 131 128 124 121 119 119 117 111 108 109 105 105 104 104 101 101 101 98 95
249 235 233 233 239 238 240 252 238 216 210 199 200 170 127 105 90 93 97 104 110 117 122 135 145 149 148 145 142 139 136 134 129 125 124 123 120 119 113 112 110 108 107 105 104 103 104 101 97
255 247 245 249 250 242 234 247 248 223 206 214 192 154 134 113 95 100 102 95 99 113 120 134 144 149 150 147 145 144 141 138 134 130 127 124 123 122 124 114 113 112 110 108 105 105 101 102 101
279 271 248 247 252 253 229 228 271 273 229 300 289 176 160 148 105 101 96 88 95 106 125 136 142 149 152 150 149 147 144 140 136 133 130 128 126 125 127 124 116 119 116 112 109 106 105 102 107
265 243 241 243 250 261 254 253 285 329 274 272 322 36 113 134 129 128 121 108 105 109 125 135 143 149 153 156 156 151 147 144 140 139 137 135 136 134 132 130 127 127 126 120 113 109 111 112 126
218 232 238 259 286 289 295 266 266 284 258 246 220 98 126 149 176 178 173 171 168 161 145 141 145 153 158 158 156 157 155 153 152 154 155 156 143 135 134 138 137 137 138 133 127 122 124 127 137
225 242 263 278 300 304 303 281 259 253 251 238 212 169 159 175 192 201 196 191 185 170 161 156 155 155 161 157 158 160 157 159 161 162 162 147 133 134 134 138 140 145 150 147 144 151 155 116 99
249 262 268 278 299 299 293 277 262 251 260 267 231 186 186 199 206 210 208 201 186 173 178 172 168 167 165 162 161 162 160 164 164 160 156 145 140 136 138 146 155 158 158 155 158 166 128 99 87
247 263 276 280 288 279 280 265 262 259 263 275 250 209 206 214 216 218 214 208 192 186 185 184 174 182 171 162 164 165 166 162 159 155 158 153 147 152 143 153 157 153 155 158 162 142 116 99 72
265 270 275 273 266 268 268 263 251 252 249 244 229 220 215 217 215 216 212 207 198 196 189 187 178 185 177 165 166 171 168 162 157 157 163 157 152 151 143 141 146 143 153 158 154 138 127 120 90
278 273 265 248 240 240 260 257 237 239 232 239 231 221 221 221 217 215 209 208 201 192 184 183 189 182 182 172 169 167 168 164 160 159 159 154 149 148 146 141 138 136 146 144 129 119 112 106 88
248 250 247 228 217 219 227 253 242 214 219 233 232 224 220 221 219 215 208 208 205 186 176 175 197 184 193 176 164 162 165 161 161 161 159 155 152 151 147 145 144 136 136 138 132 127 120 132 128
223 242 249 253 211 216 224 257 257 217 228 235 234 233 225 225 221 213 203 200 199 189 176 173 181 190 197 176 156 156 151 156 159 162 158 156 158 157 147 148 153 140 133 146 144 134 147 151 125
240 256 262 259 239 238 244 256 256 237 233 238 233 232 228 226 221 208 195 191 191 183 176 175 177 191 190 173 157 153 156 162 160 165 161 158 159 160 152 152 156 142 138 159 152 153 148 150 159
263 271 270 267 270 260 254 259 259 248 242 247 243 236 230 228 222 200 186 182 176 173 175 181 181 188 191 178 172 171 180 173 167 171 170 169 167 161 155 155 159 144 150 173 165 151 144 148 146
255 266 273 278 281 273 265 267 264 250 238 240 245 246 237 228 210 192 182 181 178 175 176 181 184 188 197 185 172 172 172 173 168 173 170 171 170 167 164 158 163 151 147 168 166 152 153 173 159
243 247 262 279 303 274 273 272 254 248 237 238 241 243 234 220 207 193 188 186 180 179 181 188 186 190 195 175 154 150 153 150 162 171 178 182 177 174 168 161 162 157 156 177 177 171 168 180 208
249 247 265 277 284 270 245 272 259 254 246 242 241 243 229 214 205 193 190 190 187 183 179 179 183 189 187 166 162 169 183 183 184 178 176 172 175 167 160 156 156 157 158 176 182 178 174 168 191
259 273 262 265 261 271 248 253 271 249 255 257 239 232 221 206 205 193 192 189 184 177 171 175 184 190 180 169 172 177 181 174 162 156 164 166 162 157 159 160 161 157 160 172 171 167 166 171 178
261 263 262 248 244 252 231 220 273 255 255 263 262 236 211 205 198 194 186 173 173 166 164 177 186 189 177 173 176 176 173 163 161 165 172 170 164 164 162 157 157 151 155 171 169 169 165 169 167
235 230 255 227 220 246 224 220 246 264 298 254 256 241 219 209 196 195 179 175 181 171 171 181 185 181 176 173 176 178 176 169 171 176 177 172 177 179 179 168 164 157 158 162 157 169 174 177 180
240 230 220 243 246 267 238 235 240 242 4 12 13 79 148 186 201 194 185 177 179 174 174 181 174 173 173 170 173 176 176 172 174 181 181 181 179 174 166 165 164 159 161 164 164 170 180 184 185
235 229 249 278 286 270 244 242 241 32 26 9 16 35 42 44 146 160 148 148 159 156 164 174 164 164 167 167 166 175 179 177 173 174 175 172 162 161 158 164 164 160 156 161 167 173 180 180 186
235 253 232 223 262 270 264 242 268 314 331 338 2 20 11 7 16 109 113 116 125 130 137 150 155 163 161 160 169 182 181 178 172 172 171 167 161 161 161 164 163 165 171 171 169 168 181 184 191
211 224 234 231 239 245 276 277 340 65 58 19 360 16 26 9 23 96 98 79 84 99 121 140 151 154 157 159 166 174 176 168 169 173 171 167 165 168 167 166 162 168 176 176 172 179 175 181 190
233 229 223 218 251 245 257 270 351 62 53 49 25 14 13 17 28 55 72 69 65 76 97 134 161 160 167 164 163 171 166 162 170 173 172 166 167 172 170 167 166 173 179 173 176 186 181 180 188
Height
1497 1498 1500 1502 1504 1503 1497 1486 1479 1479 1479 1481 1482 1484 1486 1491 1495 1505 1504 1502 1502 1503 1505 1507 1509 1510 1512 1514 1515 1517 1518 1520 1521 1522 1523 1524 1525 1526 1527 1527 1528 1529 1529 1530 1530 1531 1531 1531 1531
1496 1498 1501 1501 1501 1502 1492 1482 1479 1478 1480 1482 1484 1486 1488 1493 1496 1499 1501 1502 1502 1503 1504 1507 1508 1510 1512 1514 1515 1517 1519 1520 1521 1522 1523 1524 1525 1526 1527 1528 1529 1529 1530 1530 1531 1531 1532 1532 1533
1496 1497 1500 1497 1495 1493 1486 1477 1477 1478 1481 1483 1486 1488 1491 1495 1497 1499 1500 1501 1502 1503 1504 1506 1508 1510 1512 1513 1515 1517 1519 1520 1521 1523 1524 1524 1525 1526 1527 1528 1529 1530 1530 1531 1531 1532 1532 1533 1533
1496 1498 1498 1496 1491 1483 1479 1477 1477 1479 1482 1484 1487 1490 1492 1496 1497 1498 1499 1500 1502 1503 1504 1506 1508 1509 1511 1513 1515 1517 1518 1520 1521 1523 1524 1525 1526 1527 1527 1528 1529 1530 1530 1531 1531 1532 1533 1533 1534
1496 1496 1495 1493 1486 1480 1477 1476 1477 1479 1482 1484 1486 1489 1493 1495 1495 1496 1498 1500 1501 1502 1503 1505 1507 1509 1511 1513 1514 1516 1518 1519 1521 1522 1523 1525 1526 1526 1527 1528 1529 1530 1530 1531 1532 1532 1533 1534 1534
1496 1493 1493 1489 1483 1478 1477 1477 1478 1480 1482 1484 1486 1489 1493 1495 1494 1496 1498 1499 1501 1501 1502 1504 1506 1508 1510 1512 1514 1516 1517 1519 1520 1522 1523 1524 1525 1526 1527 1528 1529 1530 1530 1531 1532 1532 1533 1534 1534
1494 1491 1488 1484 1481 1478 1476 1477 1478 1480 1481 1484 1485 1488 1492 1493 1493 1495 1496 1498 1500 1501 1502 1503 1505 1507 1509 1511 1513 1515 1517 1518 1520 1521 1522 1524 1525 1526 1527 1528 1529 1529 1530 1531 1531 1532 1533 1534 1534
1491 1490 1486 1482 1480 1478 1477 1478 1479 1480 1481 1484 1485 1486 1489 1492 1493 1494 1495 1497 1498 1500 1501 1502 1504 1506 1508 1510 1512 1514 1516 1518 1519 1520 1522 1523 1524 1525 1526 1527 1528 1529 1530 1531 1531 1532 1533 1533 1534
1490 1492 1486 1481 1479 1478 1477 1478 1480 1480 1481 1483 1484 1485 1487 1489 1491 1493 1494 1496 1497 1498 1500 1501 1503 1504 1506 1508 1510 1513 1515 1517 1518 1520 1521 1522 1523 1524 1525 1527 1527 1528 1529 1530 1531 1532 1532 1533 1533
1489 1489 1482 1478 1478 1478 1478 1479 1480 1481 1481 1482 1483 1484 1486 1487 1489 1490 1492 1493 1495 1496 1498 1500 1501 1503 1504 1506 1508 1511 1513 1515 1517 1518 1520 1521 1522 1523 1524 1526 1526 1527 1528 1529 1530 1531 1532 1532 1532
1485 1483 1479 1479 1479 1479 1479 1479 1480 1481 1480 1480 1480 1482 1484 1486 1487 1489 1490 1491 1492 1494 1496 1497 1499 1501 1503 1504 1506 1509 1511 1513 1515 1517 1518 1520 1521 1522 1523 1524 1525 1526 1527 1528 1529 1530 1530 1531 1532
1484 1481 1480 1480 1480 1480 1480 1479 1478 1478 1477 1478 1478 1479 1481 1483 1484 1486 1487 1489 1491 1492 1493 1495 1497 1499 1500 1502 1504 1506 1508 1510 1513 1515 1517 1518 1520 1521 1522 1523 1524 1525 1526 1527 1528 1528 1529 1530 1531
1482 1481 1480 1479 1480 1480 1479 1477 1477 1475 1475 1476 1477 1477 1478 1480 1482 1484 1485 1486 1488 1489 1490 1492 1494 1496 1498 1499 1502 1504 1506 1508 1510 1512 1515 1516 1518 1519 1520 1521 1522 1523 1525 1525 1526 1527 1528 1529 1529
1481 1480 1480 1479 1478 1478 1477 1474 1474 1470 1472 1473 1474 1474 1475 1477 1478 1480 1482 1483 1484 1486 1487 1489 1491 1493 1495 1497 1499 1501 1504 1506 1508 1510 1512 1514 1516 1517 1519 1520 1521 1522 1523 1524 1525 1526 1526 1527 1528
1482 1481 1478 1475 1474 1474 1475 1471 1468 1468 1469 1469 1470 1471 1472 1473 1475 1476 1477 1479 1480 1482 1484 1486 1488 1490 1492 1494 1497 1499 1501 1503 1505 1507 1509 1511 1513 1515 1516 1518 1519 1520 1521 1522 1523 1524 1525 1525 1526
1481 1481 1477 1470 1470 1471 1476 1470 1463 1464 1465 1466 1467 1467 1468 1469 1471 1472 1474 1475 1477 1478 1480 1482 1485 1486 1489 1491 1494 1496 1498 1500 1502 1504 1506 1508 1510 1512 1514 1515 1516 1518 1519 1520 1520 1521 1523 1523 1524
1480 1479 1473 1469 1466 1467 1470 1466 1461 1461 1462 1462 1463 1463 1464 1465 1466 1468 1469 1471 1473 1475 1476 1478 1481 1483 1485 1488 1491 1493 1494 1497 1499 1501 1504 1506 1508 1510 1511 1513 1514 1515 1516 1517 1517 1519 1520 1521 1522
1479 1476 1471 1469 1464 1465 1465 1462 1459 1458 1458 1458 1458 1459 1459 1460 1461 1463 1465 1467 1469 1471 1473 1474 1477 1479 1481 1484 1487 1489 1492 1493 1495 1498 1500 1503 1505 1507 1508 1510 1511 1512 1513 1514 1515 1516 1518 1519 1520
1476 1475 1473 1467 1462 1463 1461 1458 1455 1454 1454 1454 1453 1454 1454 1455 1457 1459 1460 1463 1465 1467 1468 1470 1473 1475 1478 1479 1482 1485 1487 1490 1492 1494 1497 1499 1501 1503 1505 1507 1508 1509 1510 1511 1512 1514 1515 1516 1517
1475 1476 1472 1465 1461 1461 1459 1455 1450 1449 1449 1449 1449 1449 1449 1450 1452 1454 1456 1458 1460 1462 1464 1466 1469 1471 1473 1476 1478 1481 1484 1486 1489 1491 1493 1496 1498 1500 1501 1503 1505 1506 1507 1508 1510 1511 1512 1513 1514
1472 1473 1470 1468 1464 1460 1460 1456 1447 1443 1442 1443 1444 1443 1444 1446 1447 1449 1451 1454 1456 1458 1460 1462 1464 1467 1469 1472 1475 1478 1480 1482 1485 1487 1490 1492 1494 1496 1498 1499 1501 1502 1504 1505 1507 1508 1508 1510 1511
1470 1466 1467 1467 1470 1467 1463 1464 1446 1441 1439 1439 1439 1439 1440 1441 1443 1445 1447 1449 1452 1454 1456 1459 1461 1463 1466 1468 1471 1473 1476 1478 1481 1484 1486 1488 1491 1492 1494 1495 1497 1499 1500 1502 1503 1505 1506 1507 1508
1467 1465 1466 1466 1468 1469 1461 1464 1449 1439 1438 1435 1435 1436 1437 1438 1440 1442 1444 1446 1448 1450 1453 1455 1457 1459 1461 1464 1467 1470 1472 1474 1478 1481 1483 1485 1487 1489 1491 1492 1494 1495 1496 1498 1499 1501 1503 1504 1505
1465 1466 1465 1465 1468 1469 1457 1459 1450 1439 1435 1433 1433 1433 1435 1436 1437 1440 1441 1442 1445 1447 1450 1451 1453 1455 1457 1460 1463 1466 1468 1471 1474 1477 1479 1481 1483 1486 1487 1488 1490 1491 1493 1494 1496 1497 1499 1500 1501
1466 1469 1471 1469 1467 1461 1447 1450 1446 1435 1432 1432 1432 1432 1433 1433 1435 1437 1438 1439 1441 1443 1445 1448 1450 1451 1453 1456 1459 1462 1465 1467 1470 1473 1475 1477 1479 1481 1482 1485 1487 1488 1489 1490 1492 1494 1495 1496 1497
1465 1466 1471 1468 1462 1454 1446 1447 1438 1432 1430 1430 1430 1431 1430 1431 1433 1434 1435 1437 1439 1441 1442 1444 1446 1447 1449 1452 1455 1458 1461 1464 1466 1469 1471 1473 1475 1477 1479 1481 1483 1484 1485 1486 1488 1490 1491 1492 1493
1465 1465 1463 1465 1460 1458 1446 1437 1431 1430 1430 1430 1430 1430 1430 1431 1431 1433 1433 1435 1437 1438 1440 1441 1443 1445 1447 1449 1452 1454 1457 1460 1462 1465 1467 1469 1471 1473 1476 1478 1479 1481 1481 1483 1484 1485 1486 1488 1489
1463 1463 1466 1465 1463 1457 1443 1437 1438 1433 1432 1431 1431 1430 1430 1431 1430 1431 1432 1434 1435 1436 1438 1439 1441 1442 1444 1446 1448 1451 1454 1456 1459 1461 1463 1465 1467 1469 1471 1473 1475 1476 1478 1479 1480 1481 1482 1484 1484
1464 1464 1463 1462 1459 1460 1452 1444 1433 1433 1432 1432 1432 1431 1431 1431 1430 1430 1431 1432 1434 1434 1435 1436 1438 1440 1441 1443 1446 1448 1450 1452 1455 1457 1459 1461 1463 1465 1467 1469 1470 1472 1474 1475 1476 1477 1478 1479 1480
1461 1462 1463 1466 1463 1457 1455 1448 1432 1432 1432 1431 1432 1431 1430 1430 1430 1430 1430 1431 1432 1432 1433 1434 1436 1437 1439 1440 1443 1445 1446 1449 1451 1453 1455 1457 1459 1461 1463 1465 1466 1468 1470 1471 1472 1473 1474 1475 1475